This is the latest recevied weather packets stored in our database for station/object DC4XK-10. If no packets are shown the sender has not sent any weather packets the latest 10 day(s).
| Time | Temp. | Humidity | Pressure | Rain* | Wind** | Luminosity | Snow |
|---|---|---|---|---|---|---|---|
| 1777700331 | 12.22° C | 74% | 1018.4 hPa | 0 mm | 0 m/s | - | - |
| 1777699731 | 12.22° C | 74% | 1018.3 hPa | 0 mm | 0 m/s | - | - |
| 1777699131 | 11.67° C | 76% | 1018.4 hPa | 0 mm | 0 m/s | - | - |
| 1777698530 | 11.11° C | 77% | 1018.2 hPa | 0 mm | 0 m/s | - | - |
| 1777697931 | 10.56° C | 78% | 1018.3 hPa | 0 mm | 0 m/s | - | - |
| 1777697331 | 10.56° C | 77% | 1018.4 hPa | 0 mm | 0 m/s | - | - |
| 1777696731 | 10.56° C | 78% | 1018.4 hPa | 0 mm | 0 m/s | - | - |
| 1777696132 | 10.56° C | 77% | 1018.6 hPa | 0 mm | 0 m/s | - | - |
| 1777695531 | 10° C | 78% | 1018.7 hPa | 0 mm | 0 m/s | - | - |
| 1777694931 | 10° C | 78% | 1018.5 hPa | 0 mm | 0 m/s | - | - |
| 1777694333 | 10° C | 77% | 1018.8 hPa | 0 mm | 0 m/s | - | - |
| 1777693731 | 10° C | 77% | 1018.8 hPa | 0 mm | 0 m/s | - | - |
| 1777693131 | 10.56° C | 76% | 1018.9 hPa | 0 mm | 0 m/s | - | - |
| 1777692533 | 10.56° C | 76% | 1019 hPa | 0 mm | 0 m/s | - | - |
| 1777691931 | 10.56° C | 76% | 1019 hPa | 0 mm | 0 m/s | - | - |
| 1777691331 | 10.56° C | 75% | 1019.2 hPa | 0 mm | 0 m/s | - | - |
| 1777690731 | 10.56° C | 75% | 1019.3 hPa | 0 mm | 0 m/s | - | - |
| 1777690130 | 10.56° C | 75% | 1019.2 hPa | 0 mm | 0 m/s | - | - |
| 1777688931 | 11.11° C | 74% | 1019.7 hPa | 0 mm | 0 m/s | - | - |
| 1777688331 | 10.56° C | 74% | 1019.6 hPa | 0 mm | 0 m/s | - | - |
| 1777687731 | 10.56° C | 74% | 1019.8 hPa | 0 mm | 0 m/s | - | - |
| 1777687131 | 10.56° C | 74% | 1019.8 hPa | 0 mm | 0 m/s | - | - |
| 1777686530 | 11.11° C | 74% | 1019.6 hPa | 0 mm | 0 m/s | - | - |
| 1777685931 | 10.56° C | 74% | 1019.9 hPa | 0 mm | 0 m/s | - | - |
| 1777685331 | 10.56° C | 75% | 1020.2 hPa | 0 mm | 0 m/s | - | - |
* Rain latest hour (hover to see other rain measurements)
** Current wind speed in m/s (hover to see current wind gust speed)